FW4518 Weather Reports


Display with metric or nautical units.
time (UTC)temp
F
wind
direction
speed
MPH
gust
MPH
rain 1hr
in
rain 24hr
in
rain mn
in
humidity
%
barometer
mb
20260505013635 77 23 7.0 12.0 0.00 0.00 0.00 33 1009.5
20260505012635 78 356 5.0 10.0 0.00 0.00 0.00 33 1009.5
20260505011655 78 66 7.0 17.0 0.00 0.00 0.00 34 1009.5
20260505010655 79 354 8.0 17.0 0.00 0.00 0.00 33 1009.4
20260505005635 79 272 8.0 15.0 0.00 0.00 0.00 33 1009.4
20260505004635 80 52 8.0 15.0 0.00 0.00 0.00 35 1009.4
20260505003635 79 3 8.0 15.0 0.00 0.00 0.00 34 1009.5
20260505002635 80 225 8.0 13.0 0.00 0.00 0.00 34 1009.4
20260505001635 80 343 9.0 15.0 0.00 0.00 0.00 37 1009.5
20260505000635 81 18 5.0 10.0 0.00 0.00 0.00 34 1009.4
20260504235637 82 31 6.0 13.0 0.00 0.00 0.00 35 1009.4
20260504234655 80 2 7.0 11.0 0.00 0.00 0.00 36 1009.4
20260504233635 82 336 9.0 17.0 0.00 0.00 0.00 34 1009.4
20260504232635 81 351 7.0 13.0 0.00 0.00 0.00 34 1009.4
20260504231635 81 37 6.0 14.0 0.00 0.00 0.00 34 1009.4
20260504230655 81 17 7.0 15.0 0.00 0.00 0.00 34 1009.6
20260504225655 82 2 10.0 17.0 0.00 0.00 0.00 33 1009.8
20260504224637 81 349 6.0 11.0 0.00 0.00 0.00 33 1009.8
20260504223635 81 7 7.0 13.0 0.00 0.00 0.00 33 1010.0
20260504222655 81 33 8.0 14.0 0.00 0.00 0.00 33 1010.1
20260504221655 81 31 8.0 13.0 0.00 0.00 0.00 34 1010.1
20260504220635 82 66 8.0 15.0 0.00 0.00 0.00 33 1010.2
20260504215715 82 24 3.0 8.0 0.00 0.00 0.00 34 1010.3
20260504214635 80 360 5.0 10.0 0.00 0.00 0.00 36 1010.4
20260504213635 81 36 5.0 12.0 0.00 0.00 0.00 35 1010.4
20260504212735 80 47 6.0 15.0 0.00 0.00 0.00 36 1010.5
20260504211715 82 41 3.0 9.0 0.00 0.00 0.00 35 1010.5
20260504210635 81 60 4.0 11.0 0.00 0.00 0.00 34 1010.6
20260504205635 81 46 4.0 10.0 0.00 0.00 0.00 34 1010.7
20260504204635 81 18 7.0 12.0 0.00 0.00 0.00 33 1010.8
20260504203715 81 37 7.0 12.0 0.00 0.00 0.00 33 1010.9
20260504202636 80 15 4.0 8.0 0.00 0.00 0.00 33 1010.9
20260504201636 79 21 6.0 11.0 0.00 0.00 0.00 32 1011.1
20260504200635 78 39 7.0 13.0 0.00 0.00 0.00 34 1011.1
20260504195635 79 14 6.0 11.0 0.00 0.00 0.00 36 1011.2
20260504194635 78 33 6.0 12.0 0.00 0.00 0.00 36 1011.2
20260504193635 78 18 6.0 11.0 0.00 0.00 0.00 35 1011.4
20260504192635 78 11 6.0 12.0 0.00 0.00 0.00 37 1011.4
20260504191635 79 30 5.0 10.0 0.00 0.00 0.00 36 1011.5
20260504190635 78 25 4.0 9.0 0.00 0.00 0.00 38 1011.6
20260504185636 78 21 4.0 13.0 0.00 0.00 0.00 40 1011.7
20260504184636 77 21 6.0 13.0 0.00 0.00 0.00 43 1011.8
20260504183636 76 15 5.0 11.0 0.00 0.00 0.00 43 1011.9
20260504182636 75 10 6.0 12.0 0.00 0.00 0.00 44 1012.0
20260504181636 75 25 6.0 11.0 0.00 0.00 0.00 45 1012.1
20260504180636 75 33 5.0 10.0 0.00 0.00 0.00 44 1012.2
20260504175635 75 346 5.0 10.0 0.00 0.00 0.00 44 1012.2
20260504174635 74 34 7.0 11.0 0.00 0.00 0.00 45 1012.2
20260504173655 74 29 5.0 11.0 0.00 0.00 0.00 45 1012.1
20260504172636 73 293 2.0 5.0 0.00 0.00 0.00 46 1012.2
20260504171636 72 18 1.0 4.0 0.00 0.00 0.00 45 1012.3
20260504170636 71 160 2.0 6.0 0.00 0.00 0.00 46 1012.4
20260504150636 57 151 4.0 6.0 0.00 0.00 0.00 66 1012.7
20260504140636 48 204 0.0 2.0 0.00 0.00 0.00 79 1012.9
20260504130636 42 0.0 0.0 0.00 0.00 0.00 90 1012.7
20260504110636 44 0.0 0.0 0.00 0.00 0.00 86 1012.7
20260504081636 48 0.0 0.0 0.00 0.00 0.00 75 1012.8
20260504080636 48 0.0 0.0 0.00 0.00 0.00 75 1012.8
20260504050636 63 0.0 0.0 0.00 0.00 0.00 56 1012.1
20260504045636 65 0.0 2.0 0.00 0.00 0.00 49 1012.0
20260504044656 66 355 1.0 3.0 0.00 0.00 0.00 47 1011.9
20260504043638 66 15 2.0 3.0 0.00 0.00 0.00 47 1011.9
20260504042636 64 4 1.0 6.0 0.00 0.00 0.00 51 1011.8
20260504041636 65 0.0 0.0 0.00 0.00 0.00 50 1011.8
20260504040636 67 0.0 0.0 0.00 0.00 0.00 47 1011.6
20260504035636 68 7 1.0 4.0 0.00 0.00 0.00 46 1011.5
20260504034637 69 32 1.0 7.0 0.00 0.00 0.00 45 1011.5
20260504033637 69 347 4.0 7.0 0.00 0.00 0.00 44 1011.3
20260504032636 70 7 4.0 8.0 0.00 0.00 0.00 43 1011.2
20260504031636 71 36 6.0 11.0 0.00 0.00 0.00 43 1011.2
20260504030637 72 16 6.0 10.0 0.00 0.00 0.00 42 1011.1
20260504025637 73 9 6.0 9.0 0.00 0.00 0.00 41 1011.0
20260504024636 74 18 6.0 10.0 0.00 0.00 0.00 40 1010.9
20260504023637 75 23 7.0 15.0 0.00 0.00 0.00 39 1010.8
20260504022636 76 20 7.0 12.0 0.00 0.00 0.00 39 1010.8
20260504021637 77 22 7.0 15.0 0.00 0.00 0.00 38 1010.8
20260504020636 77 24 7.0 14.0 0.00 0.00 0.00 37 1010.8
20260504015637 78 32 7.0 11.0 0.00 0.00 0.00 36 1010.8
20260504014637 78 359 5.0 10.0 0.00 0.00 0.00 37 1010.8